SL-8 DEB *

Satellite information

Favourite Embed

Satellite Type and Status

DEBRISIN ORBIT

Key statistics

Satellite SL-8 DEB * at a glance.

Uptime

17298

Days in orbit

Revolutions

≈ 14.7

Per day

Orbit

LEO

Low Earth Orbit

Inclination

74.1

Latest

Satellite identification and parameters

Extended collection of information and parameters for SL-8 DEB *.

Object identification

Identified? True

Debris? True

Object name: SL-8 DEB *

International designator: 1978-063C

Object number (NORAD): 13497

Object ID (CCSDS): 13497

Country: COMMONWEALTH OF INDEPENDENT STATES (CIS)

Current information (Y/N): Y

RCS size: SMALL

Orbital parameters

Period: 98.217 minutes

Inclination: 74.0513 deg

SMA: 7051.535 km

Apoapsis: 681.519 km

Periapsis: 665.281 km

RAAN: 78.5583 deg

Eccentricy: 0.00115138

Argument of periapsis: 329.5475 deg

Mean anomaly: 97.4208 deg

Mean motion: 14.66146034 rev/day

Mean motion (dot): 0.00004421 rev/day2

B* drag term: 0.00080844058 1/REarth

Two-line elements (TLE)

Creation date: Oct. 28, 2025, 7:11 p.m.

Reference frame: TEME

Reference center: EARTH

Epoch: Oct. 28, 2025, 10:54 a.m. UTC

TLE line 0: 0 SL-8 DEB *

TLE line 1: 1 13497U 78063C 25301.45458062 .00004421 00000-0 80844-3 0 9991

TLE line 2: 2 13497 74.0513 78.5583 0011514 329.5475 97.4208 14.66146034295763

Live tracking on map

Real-time ground track for satellite SL-8 DEB *.

In-orbit conjunctions

A list of the most updated potential collisions computed for object SL-8 DEB *.

Target Orbit TCA Probability of collision Miss distance Type
FENGYUN 1C DEB SSO 2024-11-12 20:25:05 0.001492747 115.0 (m) DEBRIS
THOR BURNER 2 R/B SSO 2024-10-16 20:57:45 0.000435105 649.0 (m) ROCKET BODY

Associated space launch

Military communications satellite

SL-8 DEB * was lifted into orbit during the mission ‘Kosmos-3M | Strela-2M 18’, on board a Kosmos-3M space rocket.

The launch took place on June 21, 1978, 9:27 a.m. from 132/1 (132L).

For more information about the launch, click the button.

Launch to space Kosmos-3M | Strela-2M 18
Kosmos-3M | Strela-2M 18

Agency: N/A

Status: Launch Successful

Launch date: June 21, 1978, 9:27 a.m. UTC

Rocket: Kosmos-3M

Launch pad: 132/1 (132L)

Location: Plesetsk Cosmodrome, Russian Federation

...

Latest news about this satellite

There are no fresh news available about this satellite. Check back as we update our databases every day.


Newsletter sign-up

Weekly statistics, charts and insights to help you stay on top of the space industry.